Location: Unspecified
(0.0000°N, 0.0000°E)
Time: 07:06:06
(UTC+02:00)

Ariane H10-3 - Visible Passes

Search period start: 28 August 2014 00:00
Search period end: 07 September 2014 00:00
Orbit: 237 x 22538 km, 7.2° (Epoch: 27 August)

Date Brightness Start Highest point End Pass type
(mag) Time Alt. Az. Time Alt. Az. Time Alt. Az.
28 Aug 6.3 17:32:56 10° W 22:31:38 78° N 22:37:32 54° ENE visible
29 Aug 5.8 05:35:14 15° E 05:35:14 15° E 05:36:30 10° E visible
30 Aug 7.2 00:24:56 10° W 00:48:12 32° WNW 00:48:12 32° WNW visible
30 Aug 7.6 14:47:03 10° W 19:44:00 89° NNW 20:24:23 10° E visible
31 Aug 6.3 17:32:45 10° W 22:30:38 77° N 22:36:22 55° ENE visible
01 Sep 5.8 05:33:59 16° E 05:33:59 16° E 05:35:22 10° E visible
02 Sep 7.2 00:24:00 10° W 00:46:28 31° WNW 00:46:28 31° WNW visible
03 Sep 6.3 17:30:13 10° W 22:27:50 76° N 22:33:38 54° ENE visible
04 Sep 5.8 05:31:09 15° E 05:31:09 15° E 05:32:28 10° E visible
05 Sep 7.2 00:20:34 10° W 00:43:10 32° WNW 00:43:10 32° WNW visible
06 Sep 6.3 17:25:20 10° W 22:23:16 75° N 22:29:19 53° ENE visible
